Weather History for KCSQ - November, 2011

Change the Weather History Date:

Sunday, November 20, 2011

  Actual Average Record
Temperature  
Mean Temperature 28 °F -  
Max Temperature 35 °F 45 °F 71 °F (2003)
Min Temperature 21 °F 26 °F 6 °F (1985)
Degree Days  
Heating Degree Days 37    
Moisture  
Dew Point 21 °F    
Average Humidity 76    
Maximum Humidity 93    
Minimum Humidity 56    
Precipitation  
Precipitation 0.00 in - - ()
Sea Level Pressure  
Sea Level Pressure 30.24 in    
Wind  
Wind Speed 9 mph (NNE)    
Max Wind Speed 13 mph    
Max Gust Speed 17 mph    
Visibility 10 miles    
Events      
Averages and records for this station are not official NWS values.
T = Trace of Precipitation, MM = Missing Value Source: NWS Daily Summary

Daily Weather History Graph

Daily Weather History Graph

Search for Another Location

Airport or City:

Trip Planner

Search our weather history database for the weather conditions in past years. The results will help you decide how hot, cold, wet, or windy it might be!

Date:

Astronomy

Nov. 20, 2011 Rise Set
Actual Time 7:10 AM CST 4:55 PM CST
Civil Twilight 6:40 AM CST 5:24 PM CST
Nautical Twilight 6:07 AM CST 5:58 PM CST
Astronomical Twilight 5:34 AM CST 6:31 PM CST
Moon 1:37 AM CST (11/20) 1:46 PM CST (11/20)
Length of Visible Light 10h 44m
Length of Day
9h 44m
Waning Crescent, 27% of the Moon is Illuminated
Nov 20
Waning Crescent
Nov 25
New
Dec 2
First Quarter
Dec 10
Full
Dec 17
Last Quarter

Hourly Weather History & Observations

Time (CST) Temp. Windchill Dew Point Humidity Pressure Visibility Wind Dir Wind Speed Gust Speed Precip Events Conditions
12:15 AM 26.6 °F 15.7 °F 21.2 °F 80% 30.15 in 10.0 mi NNW 12.7 mph - N/A   Overcast
12:35 AM 26.6 °F 18.2 °F 21.2 °F 80% 30.16 in 10.0 mi NW 8.1 mph - N/A   Overcast
12:55 AM 26.6 °F 18.2 °F 21.2 °F 80% 30.16 in 10.0 mi NW 8.1 mph - N/A   Overcast
1:15 AM 26.6 °F 15.7 °F 21.2 °F 80% 30.17 in 10.0 mi NNW 12.7 mph - N/A   Overcast
1:35 AM 24.8 °F 15.3 °F 19.4 °F 80% 30.16 in 10.0 mi NNW 9.2 mph - N/A   Scattered Clouds
1:55 AM 24.8 °F 14.0 °F 19.4 °F 80% 30.17 in 10.0 mi NNW 11.5 mph - N/A   Clear
2:15 AM 24.8 °F 14.6 °F 19.4 °F 80% 30.18 in 10.0 mi NNW 10.4 mph - N/A   Scattered Clouds
2:35 AM 24.8 °F 19.1 °F 19.4 °F 80% 30.19 in 10.0 mi NNW 4.6 mph - N/A   Scattered Clouds
2:55 AM 24.8 °F 16.9 °F 19.4 °F 80% 30.18 in 10.0 mi North 6.9 mph - N/A   Clear
3:15 AM 24.8 °F 13.4 °F 19.4 °F 80% 30.18 in 10.0 mi North 12.7 mph - N/A   Clear
3:35 AM 23.0 °F 11.7 °F 19.4 °F 86% 30.18 in 10.0 mi North 11.5 mph - N/A   Clear
3:55 AM 23.0 °F 11.7 °F 17.6 °F 80% 30.19 in 10.0 mi NNW 11.5 mph 17.3 mph N/A   Clear
4:15 AM 21.2 °F 11.7 °F 17.6 °F 86% 30.19 in 10.0 mi North 8.1 mph - N/A   Mostly Cloudy
4:35 AM 21.2 °F 10.1 °F 17.6 °F 86% 30.20 in 10.0 mi North 10.4 mph - N/A   Scattered Clouds
4:55 AM 21.2 °F - 17.6 °F 86% 30.20 in 10.0 mi Calm Calm - N/A   Scattered Clouds
6:35 AM 21.2 °F 10.9 °F 17.6 °F 86% 30.23 in 10.0 mi North 9.2 mph - N/A   Overcast
6:55 AM 21.2 °F 10.9 °F 17.6 °F 86% 30.24 in 10.0 mi NNE 9.2 mph - N/A   Overcast
7:15 AM 21.2 °F 11.7 °F 17.6 °F 86% 30.25 in 10.0 mi NNE 8.1 mph - N/A   Overcast
7:35 AM 21.2 °F 14.9 °F 17.6 °F 86% 30.27 in 10.0 mi North 4.6 mph - N/A   Overcast
7:55 AM 21.2 °F 9.5 °F 19.4 °F 93% 30.26 in 10.0 mi NNE 11.5 mph - N/A   Overcast
8:15 AM 21.2 °F 11.7 °F 19.4 °F 93% 30.27 in 10.0 mi NNE 8.1 mph - N/A   Overcast
8:35 AM 21.2 °F 11.7 °F 19.4 °F 93% 30.27 in 10.0 mi NNE 8.1 mph - N/A   Overcast
8:55 AM 23.0 °F 18.4 °F 19.4 °F 86% 30.28 in 10.0 mi NNE 3.5 mph - N/A   Overcast
9:15 AM 23.0 °F 14.7 °F 19.4 °F 86% 30.28 in 10.0 mi NNE 6.9 mph - N/A   Overcast
9:35 AM 24.8 °F 15.3 °F 19.4 °F 80% 30.28 in 10.0 mi North 9.2 mph - N/A   Mostly Cloudy
9:55 AM 24.8 °F 16.9 °F 19.4 °F 80% - 10.0 mi NNE 6.9 mph - N/A   Scattered Clouds
10:15 AM 24.8 °F 17.9 °F 19.4 °F 80% 30.29 in 10.0 mi North 5.8 mph - N/A   Scattered Clouds
10:35 AM 24.8 °F - 19.4 °F 80% 30.29 in 10.0 mi Calm Calm - N/A   Scattered Clouds
10:55 AM 26.6 °F 19.1 °F 19.4 °F 74% 30.30 in 10.0 mi NE 6.9 mph - N/A   Scattered Clouds
11:15 AM 28.4 °F 21.2 °F 19.4 °F 69% 30.30 in 10.0 mi North 6.9 mph - N/A   Clear
11:35 AM 30.2 °F 23.4 °F 19.4 °F 64% 30.28 in 10.0 mi North 6.9 mph - N/A   Clear
11:55 AM 30.2 °F 20.8 °F 19.4 °F 64% 30.28 in 10.0 mi NNE 11.5 mph - N/A   Clear
12:15 PM 30.2 °F 22.6 °F 21.2 °F 69% 30.27 in 10.0 mi NNE 8.1 mph - N/A   Clear
12:55 PM 33.8 °F 26.4 °F 21.2 °F 60% 30.26 in 10.0 mi NNE 9.2 mph - N/A   Clear
1:15 PM 33.8 °F 25.8 °F 21.2 °F 60% 30.26 in 10.0 mi North 10.4 mph - N/A   Clear
1:35 PM 33.8 °F 25.8 °F 21.2 °F 60% 30.25 in 10.0 mi NNE 10.4 mph 16.1 mph N/A   Clear
1:55 PM 33.8 °F 24.8 °F 21.2 °F 60% 30.25 in 10.0 mi NNE 12.7 mph - N/A   Clear
2:15 PM 35.6 °F 28.6 °F 21.2 °F 56% 30.25 in 10.0 mi NNE 9.2 mph - N/A   Clear
2:35 PM 33.8 °F 25.3 °F 21.2 °F 60% 30.24 in 10.0 mi NE 11.5 mph - N/A   Scattered Clouds
2:55 PM 35.6 °F 28.0 °F 23.0 °F 60% 30.24 in 10.0 mi NE 10.4 mph - N/A   Scattered Clouds
3:15 PM 35.6 °F 27.1 °F 23.0 °F 60% 30.23 in 10.0 mi NE 12.7 mph - N/A   Scattered Clouds
3:35 PM 33.8 °F 24.8 °F 23.0 °F 65% 30.23 in 10.0 mi NNE 12.7 mph - N/A   Clear
3:55 PM 33.8 °F 25.3 °F 23.0 °F 65% 30.23 in 10.0 mi NNE 11.5 mph - N/A   Clear
4:15 PM 33.8 °F 25.8 °F 23.0 °F 65% 30.24 in 10.0 mi NNE 10.4 mph - N/A   Clear
4:35 PM 32.0 °F 24.2 °F 23.0 °F 69% 30.24 in 10.0 mi NE 9.2 mph - N/A   Clear
4:55 PM 30.2 °F 23.4 °F 23.0 °F 75% 30.24 in 10.0 mi NE 6.9 mph - N/A   Clear
5:15 PM 30.2 °F 24.3 °F 23.0 °F 75% 30.25 in 10.0 mi ENE 5.8 mph - N/A   Clear
5:35 PM 30.2 °F 25.4 °F 23.0 °F 75% 30.25 in 7.0 mi East 4.6 mph - N/A   Clear
5:55 PM 30.2 °F 25.4 °F 23.0 °F 75% 30.26 in 10.0 mi ENE 4.6 mph - N/A   Clear
6:15 PM 30.2 °F 23.4 °F 23.0 °F 75% 30.25 in 10.0 mi NE 6.9 mph - N/A   Clear
6:35 PM 30.2 °F 24.3 °F 23.0 °F 75% 30.26 in 10.0 mi ENE 5.8 mph - N/A   Clear
6:55 PM 28.4 °F 21.2 °F 23.0 °F 80% 30.25 in 10.0 mi ENE 6.9 mph - N/A   Clear
7:15 PM 28.4 °F 21.2 °F 23.0 °F 80% 30.26 in 10.0 mi NE 6.9 mph - N/A   Clear
7:35 PM 28.4 °F 22.2 °F 23.0 °F 80% 30.25 in 10.0 mi East 5.8 mph - N/A   Clear
7:55 PM 28.4 °F 22.2 °F 23.0 °F 80% 30.25 in 10.0 mi ENE 5.8 mph - N/A   Clear
8:15 PM 26.6 °F 21.2 °F 21.2 °F 80% 30.26 in 10.0 mi ENE 4.6 mph - N/A   Clear
8:35 PM 26.6 °F 18.2 °F 21.2 °F 80% 30.25 in 10.0 mi NE 8.1 mph - N/A   Clear
8:55 PM 26.6 °F 17.5 °F 21.2 °F 80% 30.25 in 10.0 mi NE 9.2 mph - N/A   Clear
9:15 PM 26.6 °F 18.2 °F 21.2 °F 80% 30.24 in 10.0 mi NE 8.1 mph - N/A   Clear
9:35 PM 26.6 °F 19.1 °F 21.2 °F 80% 30.24 in 10.0 mi ENE 6.9 mph - N/A   Clear
9:55 PM 26.6 °F 21.2 °F 21.2 °F 80% 30.25 in 10.0 mi East 4.6 mph - N/A   Clear
10:15 PM 24.8 °F 16.9 °F 21.2 °F 86% 30.24 in 10.0 mi East 6.9 mph - N/A   Clear
10:35 PM 24.8 °F 16.9 °F 21.2 °F 86% 30.23 in 10.0 mi East 6.9 mph - N/A   Clear
10:55 PM 24.8 °F 17.9 °F 21.2 °F 86% 30.24 in 10.0 mi East 5.8 mph - N/A   Clear
11:15 PM 24.8 °F 17.9 °F 19.4 °F 80% 30.23 in 10.0 mi East 5.8 mph - N/A   Clear
11:35 PM 24.8 °F 16.9 °F 19.4 °F 80% - 10.0 mi ENE 6.9 mph - N/A   Clear
11:55 PM 24.8 °F 16.9 °F 21.2 °F 86% 30.22 in 10.0 mi ENE 6.9 mph - N/A   Clear